Lid_Strength_Index
5 5 5 5 5 5 5 5 4 4 3 2 2 4 4 4 4 4 3 0 2 6 5 4 3 6 6 6 10 7 8 8 9 12 12 13 13 12 14 13 14 15 15 15 14 16 19 9 8 12 10 7 6 6
5 5 5 5 5 5 5 5 4 4 4 3 2 3 4 4 4 4 6 1 -0 4 5 2 2 1 2 3 6 6 8 7 8 10 10 11 13 12 13 16 10 15 12 14 14 14 9 8 8 7 6 6 5 5
6 5 5 5 5 5 5 5 4 4 4 3 2 2 4 4 4 4 6 3 3 5 4 4 4 2 0 1 0 7 6 5 6 5 8 10 13 11 15 14 12 10 8 12 12 10 9 8 7 6 5 5 5 4
6 6 5 5 5 5 5 5 5 4 4 4 3 2 3 4 4 4 6 3 3 4 8 5 1 3 0 0 1 2 3 4 4 5 8 9 12 8 11 11 11 9 8 11 11 9 7 7 7 6 5 5 4 4
6 6 6 6 6 6 5 5 5 5 4 4 3 2 3 4 4 4 4 3 2 5 8 6 3 1 1 1 2 2 3 5 6 7 9 9 6 7 8 9 11 7 9 12 12 8 8 7 7 5 5 5 4 4
7 7 6 6 6 6 5 5 5 4 4 4 3 3 2 3 3 4 5 2 2 2 6 9 3 3 2 2 3 3 3 4 5 6 7 6 4 7 11 13 7 7 6 6 8 5 5 5 5 5 5 4 4 4
7 7 7 6 6 6 5 5 5 4 4 4 4 3 3 3 3 3 4 4 2 2 6 8 7 3 3 3 3 4 3 4 5 6 7 7 7 7 10 12 8 7 6 6 5 5 6 6 6 5 5 4 4 3
8 7 7 6 6 6 5 5 5 5 4 4 4 4 3 2 2 3 1 3 2 4 4 9 8 6 3 5 6 3 5 5 6 6 6 7 6 7 11 8 6 6 5 6 5 5 5 5 4 5 5 4 5 4
8 8 7 7 7 6 6 5 5 5 4 5 4 4 3 2 3 3 2 2 1 4 8 7 10 10 3 5 4 5 4 8 5 7 6 6 8 11 8 7 6 6 7 7 5 6 5 5 6 5 5 5 5 5
8 8 8 8 7 7 6 6 5 5 5 4 4 4 5 3 2 2 3 5 6 6 6 8 5 8 5 6 6 6 5 8 11 8 6 9 9 6 5 5 5 5 5 5 7 7 6 6 6 6 5 5 5 5
8 8 8 7 7 6 6 5 5 5 5 4 5 6 4 2 3 3 6 8 7 8 6 6 5 7 4 7 8 6 8 7 11 9 9 10 11 7 4 4 4 3 4 4 5 5 5 5 6 6 6 5 5 5
8 8 8 8 7 7 6 5 5 5 5 6 6 5 4 5 5 8 9 7 8 9 6 6 6 5 5 4 7 7 9 9 12 6 9 12 8 5 4 4 4 3 4 5 4 5 5 5 5 6 6 6 6 5
8 8 8 7 7 7 6 5 5 5 5 5 7 8 8 6 11 11 11 9 8 6 5 5 7 5 5 5 7 8 11 12 7 10 11 9 6 5 4 4 4 3 3 4 4 4 5 5 5 5 6 6 6 5
8 7 7 7 6 5 5 5 4 4 5 7 9 11 9 10 8 8 7 6 4 4 5 5 6 6 5 7 8 11 8 8 13 13 13 8 7 5 4 3 4 4 3 3 3 3 4 5 5 4 5 5 6 6
7 7 6 5 5 5 4 4 5 4 5 7 7 11 9 6 5 4 4 4 4 3 4 5 5 6 7 8 8 9 11 13 11 12 8 7 5 5 5 4 4 3 3 3 3 3 4 4 4 5 5 5 5 5
7 6 6 5 5 5 5 5 4 4 5 6 6 7 6 6 6 5 5 5 3 4 3 4 6 8 9 8 10 11 12 14 12 8 5 5 4 4 4 3 3 3 3 3 3 3 3 4 4 4 4 4 5 5
6 5 5 5 5 5 4 4 4 6 6 7 7 4 5 5 6 5 5 4 3 4 7 6 10 10 6 10 11 9 12 9 7 5 4 4 4 3 3 3 3 3 3 3 3 2 2 3 3 4 4 4 4 5
6 5 5 5 5 5 3 4 5 6 8 6 7 6 4 4 5 4 4 3 4 5 5 7 5 8 10 12 10 8 7 5 4 4 3 4 3 3 3 3 2 2 3 2 3 2 2 3 3 4 3 3 4 4
5 5 5 5 5 6 7 5 5 8 7 5 5 4 4 4 3 3 3 3 3 3 4 5 7 8 8 6 6 5 5 5 5 4 4 2 2 2 2 2 3 2 2 2 2 3 2 2 3 3 3 4 4 5
5 5 5 4 5 6 8 6 3 6 7 5 4 4 4 4 3 3 3 3 4 5 6 7 7 6 5 4 4 4 4 3 4 5 5 4 3 3 3 3 3 2 2 3 3 5 2 2 2 2 3 3 4 5
5 5 4 4 5 6 7 7 7 5 5 6 5 4 5 4 4 5 5 3 5 6 7 5 5 4 3 3 2 2 3 3 3 4 4 4 3 3 4 2 2 3 3 3 4 4 4 3 3 3 3 3 3 3
5 3 5 4 6 6 7 6 7 6 7 7 6 5 6 6 6 5 3 5 6 5 4 4 4 3 3 3 3 2 2 2 2 3 4 4 4 4 4 2 3 3 3 3 3 4 3 3 3 3 3 3 4 4
4 4 6 6 8 8 9 5 8 7 8 8 6 7 6 6 5 3 6 5 5 3 3 3 3 2 3 2 2 2 2 2 3 3 3 3 3 2 3 2 2 3 3 3 2 3 3 4 4 3 3 3 3 3
4 6 8 8 8 10 7 8 5 7 6 7 8 9 8 6 4 6 8 6 4 3 3 3 3 3 3 3 3 3 2 2 2 2 2 2 3 3 2 2 2 2 2 2 2 2 2 2 4 2 3 3 3 4
9 9 9 10 8 9 10 9 8 7 9 8 8 8 7 6 8 8 8 6 4 4 3 3 3 3 4 3 3 2 1 2 3 3 2 2 3 3 3 2 2 2 1 3 3 2 2 2 3 3 3 4 4 4
12 10 10 9 9 10 9 11 10 9 8 9 8 6 6 7 9 10 7 5 4 4 4 4 4 3 3 3 3 3 2 1 2 3 2 2 2 3 4 4 4 3 2 2 2 2 3 3 3 3 3 5 9 5
12 11 8 5 6 7 8 7 6 8 9 9 8 9 8 11 10 7 5 5 4 3 2 2 3 3 3 3 2 2 1 1 2 2 1 1 1 2 2 3 3 2 1 2 2 3 3 3 3 3 3 3 4 4
7 7 10 8 8 7 9 9 9 9 7 6 7 10 11 11 10 6 5 4 3 3 2 2 1 2 2 2 2 1 1 1 1 1 1 1 1 1 1 2 2 7 2 2 2 2 2 3 3 3 3 4 4 4
8 6 7 9 8 8 8 8 8 6 5 5 8 8 8 5 5 4 3 3 3 3 3 3 3 2 2 2 1 1 1 2 4 5 4 5 4 3 2 2 2 2 2 3 10 6 3 3 3 3 3 3 4 4
8 6 8 8 9 9 7 5 6 4 4 4 4 4 5 4 4 4 4 4 4 4 4 3 3 2 3 3 3 2 2 2 2 4 5 4 4 2 2 2 2 2 2 2 3 4 9 4 6 3 3 4 5 6
6 7 7 7 8 6 5 4 4 4 4 4 4 5 6 5 5 5 6 5 4 3 3 4 3 3 3 3 4 4 5 5 5 4 4 2 2 1 1 1 1 2 1 2 2 3 3 3 3 4 5 6 7 7
6 8 8 9 7 5 4 5 5 5 5 5 5 4 4 5 7 8 7 7 7 8 8 7 5 4 4 3 3 4 7 5 5 5 5 4 4 2 1 1 1 1 1 2 2 2 3 4 5 5 6 6 7 7
6 6 6 7 7 7 5 5 6 6 5 6 5 5 5 6 9 7 5 5 6 7 7 7 6 4 4 4 4 5 5 5 8 10 9 9 9 7 4 3 3 2 3 3 4 4 4 5 6 6 6 7 7 7